Location: Newark
(39.0622°N, 106.5590°E)
Time: 19:09:22
(UTC+00:00)

S-56A Canister/Altair - Pass Details

Date: 22 January 2020
Orbit: 633 x 2499 km, 38.9° (Epoch: 19 February)

Event Time Altitude Azimuth Distance (km) Brightness Sun altitude
Rises 12:20:25 0° 214° (SW) 4,236 11.9 -26.6°
Reaches altitude 10° 12:24:18 10° 202° (SSW) 2,937 10.8 -27.4°
Enters shadow 12:28:16 22° 169° (SSE) 1,909 9.4 -28.1°
